Hourly Data Report for April 03, 2021

NANAIMO A
BRITISH COLUMBIA
Current Station Operator: NAVCAN

49°03'16.000" N
123°52'12.000" W
28.00 m
1025365
YCD

Download Data

Hourly Data (April 2021)
Hourly Data Report for April 3, 2021
TIME
LST
Temp Definition
°C
Dew Point Definition
°C
Rel Hum Definition
%
Precip. Amount Definition
mm

Wind Dir Definition
10's deg

Wind Spd Definition
km/h
Visibility Definition
km
Stn Press Definition
kPa
Hmdx Definition


Wind Chill Definition


Weather Definition


00:00 3.8 1.7 86 LegendMM 15 2 LegendMM 101.66     LegendNANA
01:00 4.1 2.7 91 LegendMM 5 1 LegendMM 101.67     LegendNANA
02:00 4.6 2.7 87 LegendMM 26 9 LegendMM 101.69     LegendNANA
03:00 4.5 3.0 90 LegendMM 18 1 LegendMM 101.65     LegendNANA
04:00 4.7 4.0 95 LegendMM 24 1 LegendMM 101.63     LegendNANA
05:00 4.5 4.3 98 LegendMM 35 4 LegendMM 101.61     LegendNANA
06:00 4.7 4.6 99 LegendMM 24 7 LegendMM 101.59     LegendNANA
07:00 5.3 5.2 99 LegendMM 28 5 LegendMM 101.59     LegendNANA
08:00 7.2 4.9 85 LegendMM 12 5 LegendMM 101.58     LegendNANA
09:00 7.9 4.3 78 LegendMM 9 11 LegendMM 101.62     LegendNANA
10:00 8.5 4.8 77 LegendMM 8 16 LegendMM 101.64     LegendNANA
11:00 9.3 4.2 70 LegendMM 8 13 LegendMM 101.62     LegendNANA
12:00 9.5 5.5 76 LegendMM 9 17 LegendMM 101.63     LegendNANA
13:00 10.2 5.3 72 LegendMM 11 18 LegendMM 101.64     LegendNANA
14:00 11.5 5.7 68 LegendMM 10 18 LegendMM 101.63     LegendNANA
15:00 12.9 6.7 66 LegendMM 20 7 LegendMM 101.62     LegendNANA
16:00 12.4 6.0 65 LegendMM 2 13 LegendMM 101.63     LegendNANA
17:00 12.6 5.5 62 LegendMM 14 3 LegendMM 101.63     LegendNANA
18:00 11.8 1.4 49 LegendMM 23 14 LegendMM 101.65     LegendNANA
19:00 9.7 1.6 57 LegendMM 18 9 LegendMM 101.68     LegendNANA
20:00 9.4 1.2 56 LegendMM 22 13 LegendMM 101.75     LegendNANA
21:00 8.8 1.1 58 LegendMM 23 13 LegendMM 101.78     LegendNANA
22:00 8.4 1.0 59 LegendMM 33 8 LegendMM 101.84     LegendNANA
23:00 7.7 2.4 69 LegendMM 33 17 LegendMM 101.91     LegendNANA

Notes on Data Quality.

Legend

  • E = Estimated
  • M = Missing
  • NA = Not Available*
  • [empty] = Indicates an unobserved value
Date modified: